Location: Medlow Airstrip Trail, Medlow Bath NSW 2780, Australia
(33.6682°S, 150.3233°E)
Time: 23:34:57
(UTC+11:00)

Explorer 11/Cluster Stage 4 - Pass Details

Date: 25 September 2019
Orbit: 467 x 1259 km, 28.8° (Epoch: 19 October)

Event Time Altitude Azimuth Distance (km) Brightness Sun altitude
Rises 12:37:13 0° 271° (W) 3,421 10.0 55.3°
Reaches altitude 10° 12:39:46 10° 280° (W) 2,607 9.6 55.1°
Maximum altitude 12:45:33 36° 343° (NNW) 1,608 9.9 54.6°
Drops below altitude 10° 12:52:21 10° 46° (NE) 3,075 9.9 54.0°
Sets 12:55:38 0° 53° (NE) 4,113 10.3 53.7°
